Regional Weather Roundup
Issued by NWS Jackson, KY

Home | Current Version | Previous Version | Text Only | Print | Product List | Glossary On
Versions: 1 2 3 4 5 6 7 8 9 10 11 12 13 14 15 16 17 18 19 20 21 22 23 24 25 26 27 28 29 30 31 32 33 34 35 36 37 38 39 40 41 42 43 44 45 46 47 48 49 50
000
ASUS43 KJKL 291710
RWRJKL

EAST KENTUCKY HOURLY WEATHER ROUNDUP
NATIONAL WEATHER SERVICE JACKSON KY
100 PM EDT SUN MAY 29 2016

NOTE: "FAIR" INDICATES FEW OR NO CLOUDS BELOW 12,000 FEET WITH
NO SIGNIFICANT WEATHER AND/OR OBSTRUCTIONS TO VISIBILITY.

* THESE REPORTS ARE NOT UNDER NWS QUALITY CONTROL AND MAY NOT
  REPORT WEATHER SUCH AS PRECIPITATION AND FOG.

KYZ079-080-083-085-087-088-110-112-115-119-120-291800
...EASTERN KENTUCKY...

CITY           SKY/WX    TMP DP  RH WIND       PRES   REMARKS
JACKSON        RAIN      70  65  84 CALM      30.16F
LONDON         SUNNY     80  61  52 VRB3      30.15F
SOMERSET*      MOSUNNY   79  63  57 NW6       30.15F
MONTICELLO*    SUNNY     81  65  58 N10       30.17S
WILLIAMSBURG*  SUNNY     79  63  57 N5        30.16S
MIDDLESBORO*   CLOUDY    74  71  90 SE3       30.16F
HARLAN APT*    CLOUDY    68  61  77 NW3G18    30.16S
HAZARD APT*    MOSUNNY   75  63  64 NW6       30.16S
BLACK MTN*       N/A     61  61 100 SW7         N/A
PIKE CO APT*     N/A     77  68  73 SE3       30.16F
BIG SANDY APT* CLOUDY    80  70  70 SE3       30.14F
MOREHEAD APT*  CLOUDY    79  64  61 CALM      30.16F
ASHLAND*       CLOUDY    73  66  78 CALM      30.11F
$$

KYZ035-036-041-042-044-050-067-078-099-291800
...CENTRAL KENTUCKY...

CITY           SKY/WX    TMP DP  RH WIND       PRES   REMARKS
MT STERLING*   CLOUDY    77  68  73 CALM      30.15F
FLEMING/MASON* MOSUNNY  N/A N/A N/A SW5       30.15S
DANVILLE*      MOSUNNY   79  63  57 CALM      30.15F
RICHMOND*      SUNNY     81  66  61 CALM      30.13F
LEXINGTON      MOSUNNY   81  66  60 SW6       30.13F
FRANKFORT      MOSUNNY   83  64  52 W5        30.10F
LOUISVILLE     PTSUNNY   84  66  54 SW10      30.09F
LEBANON*         N/A     82  66  57 S6        30.13S
GLASGOW*       SUNNY     83  66  57 NW3       30.13F
BOWLING GREEN  MOSUNNY   82  67  60 VRB3      30.12F
$$

KYZ091>093-OHZ055-061-077-WVZ005-015-034-035-042-291800
...SOUTHERN OHIO/WEST VIRGINIA...

CITY           SKY/WX    TMP DP  RH WIND       PRES   REMARKS
COVINGTON      CLOUDY    83  67  58 SW7       30.10F
COLUMBUS       CLOUDY    78  66  66 SW7       30.11S
DAYTON         PTSUNNY   80  66  62 SW10      30.10F
WILMINGTON     CLOUDY    80  67  64 SW9       30.11F
HUNTINGTON       N/A     77  66  68 N7        30.13S
CHARLESTON     CLOUDY    79  62  56 CALM      30.13S
PINEVILLE*     CLOUDY    74  59  58 MISG      30.23S
BECKLEY        CLOUDY    71  58  63 E5        30.21R
BLUEFIELD      CLOUDY    69  55  60 CALM      30.23R
LOGAN CO APT*  PTSUNNY   75  63  64 CALM      30.16S
$$

VAZ002-007-008-TNZ017-027-036-066-071-291800
...SOUTHWEST VIRGINIA/EAST TENNESSEE...

CITY           SKY/WX    TMP DP  RH WIND       PRES   REMARKS
WISE*            N/A     75  52  43 SE3       30.23F
JONESVILLE*      N/A     81  61  50 CALM      30.17F
ABINGDON*        N/A     78  53  42 CALM      30.19S
BRISTOL        CLOUDY    75  61  61 CALM      30.16F
SEVIERVILLE*   MOSUNNY   81  63  54 NE6       30.13F
KNOXVILLE      CLOUDY    82  65  56 VRB3      30.13F
OAK RIDGE      SUNNY     83  63  50 CALM      30.14F
CROSSVILLE     SUNNY     79  59  50 VRB6      30.19F
NASHVILLE      PTSUNNY   86  65  49 VRB5      30.13F
$$

...KEY TO REMARKS...
VSB - VISIBILITY IN MILES
WCI - WIND CHILL INDEX
HX  - HEAT INDEX

$$



USA.gov is the U.S. government's official web portal to all federal, state and local government web resources and services.